PEGASUS DEB, 39923

Orbit data source: Space-Track

PEGASUS DEB, 39923 is space debris in LEO originally from a launch on Thu, 19 May 1994 UTC launched from the Air Force Western Test Range (AFWTR). Debris objects in space refer to the collection of defunct objects orbiting the Earth. Examples of debris include non-operational satellites, rocket bodies, and fragments generated from explosions, collisions, or faulty payload assembly.

Loading next visibility...
Identifier
39923, 1994-029AFW
Orbit
LEO
Country
Flag of USUS
Related business
Manufacturer
Unknown
Mission
Spacecraft
Bus & Motor
Unknown
Mass
Unknown
Launch date (UTC)
1994-05-19 (32 years ago)
Launch vehicle
Unknown
Launch site
Air Force Western Test Range (AFWTR)
Object type
Payload
Rocket body
Debris
Shape & HBR
Unknown shape, 0.1 m
Radar Cross Section
Small (<0.1 m²)

Expand to show TLE details & history
Last TLE update: 3 days ago

TLE from 3 days ago
0 PEGASUS DEB
1 39923U 94029AFW 26175.33812153  .00003714  00000-0  11473-2 0  9990
2 39923  82.1426 200.5599 0519716 349.7462   9.3401 13.84123168 55504
Epoch: 2026-06-24T08:06Z
TLE epoch observation values (Epoch: 2026-06-24T08:06:53.700Z)
Latitude
-0.00002°
Longitude
166.33938°
Altitude
576.924 km
Speed
7.764 km/s
True Right ascension
13h 22m 14s
True Declination
0° 00' 00"
Sunlit
Object was in daylight at epoch
Visualization orbit readout
Latitude
Unknown
Longitude
Unknown
Altitude
Unknown
Speed
Unknown
Apparent Right ascension
Unknown
Apparent Declination
Unknown
Sunlit
N/A
Visualization observer readout
Local Sidereal Time
23:02:54
Azimuth
Unknown
Elevation
Unknown
Doppler factor
Unknown
Orbital elements
Apogee altitude
1,327.127 km
Perigee altitude
565.785 km
Semi-major axis
7,324.593 km
Eccentricity
0.05197
Inclination
82.1426°
RAAN
200.5599°
Arg. of periapsis
349.7462°
True anomaly
10.37259°
Mean anomaly
9.3401°
Eccentric anomaly
9.84948°
Mean motion
3.46233 °/min
Orbital period
103.98 mins
BSTAR
0.0011473
Loading maneuver chart data...
Computing Atmospheric mass density...

Documentation

Showing up to 5 results
|